Location: Zagreb
(45.8000°N, 16.0000°E)
Time: 12:01:58
(UTC+01:00)

Vanguard 1 Rocket - Pass Details

Date: 03 October 2020
Orbit: 656 x 4221 km, 34.3° (Epoch: 28 October)

Event Time Altitude Azimuth Distance (km) Brightness Sun altitude
Rises 19:31:41 0° 255° (WSW) 5,049 12.7 -11.3°
Reaches altitude 10° 19:34:26 10° 251° (WSW) 4,407 12.0 -11.7°
Maximum altitude 19:47:15 56° 177° (S) 3,384 10.2 -14.0°
Enters shadow 20:05:05 19° 111° (ESE) 6,378 11.0 -17.0°
Drops below altitude 10° 20:09:53 10° 108° (ESE) 7,301 - -17.9°
Sets 20:16:09 0° 105° (ESE) 8,454 - -18.9°
